Location: Dumpton Point
(51.3500°N, 1.4433°E)
Time: 14:49:03
(UTC+00:00)

Envisat - Pass Details

Date: 11 December 2021
Orbit: 764 x 766 km, 98.2° (Epoch: 28 January)

Event Time Altitude Azimuth Distance (km) Brightness Sun altitude
Rises 06:08:46 0° 8° (N) 3,248 6.1 -14.6°
Reaches altitude 10° 06:11:17 10° 359° (N) 2,317 5.3 -14.2°
Maximum altitude 06:15:46 32° 297° (WNW) 1,293 3.6 -13.6°
Drops below altitude 10° 06:20:14 10° 236° (SW) 2,302 5.1 -12.9°
Sets 06:22:43 0° 226° (SW) 3,224 6.0 -12.6°
